W5ITZ Weather Reports


time (UTC)temp
F
wind
direction
speed
knots
gust
knots
rain 1hr
in
rain 24hr
in
rain mn
in
humidity
%
barometer
mb
20260506103051 76 136 1.7 1.7 0.00 0.00 0.00 95 1008.4
20260506102549 76 127 2.6 2.6 0.00 0.00 0.00 95 1008.3
20260506102046 76 119 2.6 1.7 0.00 0.00 0.00 95 1008.3
20260506101543 76 124 2.6 1.7 0.00 0.00 0.00 95 1008.3
20260506101040 76 138 2.6 2.6 0.00 0.00 0.00 95 1008.2
20260506100538 76 148 3.5 4.3 0.00 0.00 0.00 95 1008.1
20260506100036 76 163 2.6 2.6 0.00 0.00 0.00 95 1008.3
20260506095535 76 134 2.6 2.6 0.00 0.00 0.00 95 1008.1
20260506095030 76 140 3.5 4.3 0.00 0.00 0.00 94 1008.3
20260506094528 76 152 2.6 2.6 0.00 0.00 0.00 94 1008.2
20260506094026 76 148 4.3 4.3 0.00 0.00 0.00 94 1008.2
20260506093524 76 135 4.3 4.3 0.00 0.00 0.00 94 1008.2
20260506093021 76 149 3.5 5.2 0.00 0.00 0.00 94 1008.1
20260506092519 76 163 3.5 4.3 0.00 0.00 0.00 94 1008.0
20260506092015 76 158 2.6 2.6 0.00 0.00 0.00 94 1008.1
20260506091514 76 155 2.6 2.6 0.00 0.00 0.00 94 1008.1
20260506091011 76 144 4.3 5.2 0.00 0.00 0.00 94 1007.8
20260506090509 76 138 4.3 5.2 0.00 0.00 0.00 94 1008.0
20260506090005 76 167 5.2 6.1 0.00 0.00 0.00 94 1007.9
20260506085501 76 142 4.3 5.2 0.00 0.00 0.00 94 1008.0
20260506084958 76 150 4.3 5.2 0.00 0.00 0.00 94 1008.1
20260506084455 76 152 4.3 5.2 0.00 0.00 0.00 93 1008.2
20260506083951 76 196 6.1 6.1 0.00 0.00 0.00 93 1008.2
20260506083448 76 157 5.2 5.2 0.00 0.00 0.00 94 1008.2
20260506082945 76 148 6.1 6.1 0.00 0.00 0.00 93 1008.2
20260506082442 76 165 4.3 5.2 0.00 0.00 0.00 93 1008.0
20260506081938 76 150 4.3 4.3 0.00 0.00 0.00 93 1008.0
20260506081437 76 147 5.2 5.2 0.00 0.00 0.00 94 1008.1
20260506080934 76 147 6.1 6.1 0.00 0.00 0.00 94 1008.2
20260506080431 76 176 4.3 4.3 0.00 0.00 0.00 94 1008.2
20260506073415 77 175 6.1 6.1 0.00 0.00 0.00 93 1008.5
20260506072912 77 150 6.1 6.1 0.00 0.00 0.00 93 1008.7
20260506072409 77 148 5.2 6.1 0.00 0.00 0.00 93 1008.9
20260506071907 77 176 4.3 5.2 0.00 0.00 0.00 93 1008.8
20260506071405 77 166 4.3 5.2 0.00 0.00 0.00 93 1009.0
20260506070901 77 174 7.0 7.8 0.00 0.00 0.00 93 1008.7
20260506070358 77 176 5.2 6.1 0.00 0.00 0.00 93 1009.0
20260506062335 77 195 5.2 6.1 0.00 0.00 0.00 92 1009.5
20260506061831 77 193 4.3 5.2 0.00 0.00 0.00 92 1009.3
20260506061328 77 187 5.2 5.2 0.00 0.00 0.00 92 1009.3
20260506060826 77 188 3.5 5.2 0.00 0.00 0.00 92 1009.4
20260506060324 77 215 5.2 5.2 0.00 0.00 0.00 92 1009.4
20260506051255 77 198 8.7 9.6 0.00 0.00 0.00 92 1008.7
20260506050754 77 176 7.0 8.7 0.00 0.00 0.00 91 1009.1
20260506050251 77 142 7.0 8.7 0.00 0.00 0.00 91 1008.9
20260506044741 77 179 5.2 6.1 0.00 0.00 0.00 91 1009.0
20260506044238 77 189 9.6 11.3 0.00 0.00 0.00 91 1008.7
20260506043736 77 188 7.0 7.8 0.00 0.00 0.00 91 1008.7
20260506043233 77 206 9.6 12.2 0.00 0.00 0.00 91 1008.6
20260506042732 77 166 6.1 7.8 0.00 0.00 0.00 91 1008.7
20260506042230 77 173 9.6 9.6 0.00 0.00 0.00 91 1008.7
20260506041728 77 182 7.8 7.8 0.00 0.00 0.00 91 1008.8
20260506041225 77 162 7.8 8.7 0.00 0.00 0.00 91 1008.8
20260506040722 77 150 7.8 8.7 0.00 0.00 0.00 90 1008.6
20260506040219 77 169 9.6 9.6 0.00 0.00 0.00 90 1008.6
20260506035716 77 176 10.4 13.9 0.00 0.00 0.00 91 1008.5
20260506035213 77 185 6.1 7.0 0.00 0.00 0.00 90 1008.6
20260506034709 77 184 10.4 11.3 0.00 0.00 0.00 90 1008.3
20260506034207 77 161 9.6 9.6 0.00 0.00 0.00 90 1008.5
20260506033704 77 157 7.0 7.8 0.00 0.00 0.00 90 1008.4
20260506033201 77 195 8.7 9.6 0.00 0.00 0.00 90 1008.6
20260506032658 77 183 10.4 12.2 0.00 0.00 0.00 91 1008.4
20260506032155 77 165 7.0 9.6 0.00 0.00 0.00 91 1008.7
20260506031651 77 181 6.1 7.0 0.00 0.00 0.00 91 1008.7
20260506031149 77 167 6.1 7.0 0.00 0.00 0.00 91 1008.7
20260506030647 77 162 7.8 7.8 0.00 0.00 0.00 91 1008.5
20260506030144 77 164 7.0 7.0 0.00 0.00 0.00 91 1008.5
20260506025641 77 168 7.8 9.6 0.00 0.00 0.00 91 1008.4
20260506025137 77 183 8.7 8.7 0.00 0.00 0.00 91 1008.2
20260506024635 77 188 7.8 8.7 0.00 0.00 0.00 91 1008.3
20260506024130 77 188 7.8 8.7 0.00 0.00 0.00 91 1008.1
20260506023627 77 176 7.8 8.7 0.00 0.00 0.00 91 1008.1
20260506023124 77 176 6.1 7.0 0.00 0.00 0.00 91 1008.1
20260506022622 77 166 9.6 9.6 0.00 0.00 0.00 91 1008.0
20260506022119 77 178 5.2 6.1 0.00 0.00 0.00 91 1007.9
20260506021616 77 185 5.2 6.1 0.00 0.00 0.00 91 1007.8
20260506021114 77 181 5.2 7.0 0.00 0.00 0.00 91 1007.6
20260506020610 77 169 7.0 7.8 0.00 0.00 0.00 91 1007.6
20260506020108 77 189 6.1 7.0 0.00 0.00 0.00 91 1007.5
20260506015606 77 155 8.7 8.7 0.00 0.00 0.00 91 1007.5
20260506015102 77 182 7.8 8.7 0.00 0.00 0.00 90 1007.8
20260506014600 77 158 8.7 9.6 0.00 0.00 0.00 90 1007.5
20260506014055 77 191 12.2 13.0 0.00 0.00 0.00 90 1007.3
20260506013554 77 171 9.6 9.6 0.00 0.00 0.00 90 1007.4
20260506013050 77 191 6.1 7.8 0.00 0.00 0.00 90 1007.2
20260506012546 77 187 7.8 9.6 0.00 0.00 0.00 89 1007.0
20260506012043 77 177 7.8 9.6 0.00 0.00 0.00 89 1007.0
20260506011541 78 192 7.0 7.8 0.00 0.00 0.00 89 1007.1
20260506011036 78 200 7.8 7.8 0.00 0.00 0.00 88 1006.9
20260506010531 78 188 9.6 9.6 0.00 0.00 0.00 88 1006.8
20260506010027 78 148 10.4 11.3 0.00 0.00 0.00 88 1006.8
20260506005524 78 177 7.0 8.7 0.00 0.00 0.00 87 1006.7
20260506005020 78 186 10.4 13.9 0.00 0.00 0.00 87 1006.7
20260506004518 78 176 11.3 13.9 0.00 0.00 0.00 86 1006.7
20260506004014 78 195 11.3 15.6 0.00 0.00 0.00 87 1006.7
20260506003510 78 200 9.6 11.3 0.00 0.00 0.00 87 1006.6
20260506003006 78 182 11.3 13.9 0.00 0.00 0.00 87 1006.7
20260506002502 78 176 10.4 13.0 0.00 0.00 0.00 87 1006.8
20260506001958 78 179 9.6 11.3 0.00 0.00 0.00 86 1006.7
20260506001455 78 182 9.6 11.3 0.00 0.00 0.00 86 1006.7
20260506000952 78 185 12.2 13.0 0.00 0.00 0.00 86 1006.8
20260506000449 79 175 12.2 13.0 0.00 0.00 0.00 86 1006.5
20260505235946 79 148 8.7 9.6 0.00 0.00 0.00 85 1006.5
20260505235445 79 170 9.6 11.3 0.00 0.00 0.00 85 1006.7
20260505234941 79 166 13.0 13.9 0.00 0.00 0.00 85 1006.5
20260505234439 79 179 11.3 12.2 0.00 0.00 0.00 85 1006.4
20260505233935 79 163 9.6 11.3 0.00 0.00 0.00 85 1006.5
20260505233433 79 180 13.0 15.6 0.00 0.00 0.00 85 1006.5
20260505232930 79 170 7.8 8.7 0.00 0.00 0.00 85 1006.6
20260505232428 79 194 10.4 12.2 0.00 0.00 0.00 84 1006.5
20260505231924 79 171 11.3 13.0 0.00 0.00 0.00 84 1006.8
20260505231422 79 161 13.0 14.8 0.00 0.00 0.00 83 1006.7
20260505230920 79 179 13.9 18.2 0.00 0.00 0.00 84 1006.7
20260505230418 79 187 10.4 13.0 0.00 0.00 0.00 83 1006.6
20260505225914 80 197 13.0 14.8 0.00 0.00 0.00 83 1006.6
20260505225411 80 158 11.3 12.2 0.00 0.00 0.00 83 1006.7
20260505224906 80 183 13.0 14.8 0.00 0.00 0.00 82 1006.8
20260505224404 80 183 11.3 13.0 0.00 0.00 0.00 82 1006.8
20260505223901 80 202 8.7 9.6 0.00 0.00 0.00 82 1006.9
20260505223358 80 205 10.4 12.2 0.00 0.00 0.00 83 1007.0
20260505222854 80 202 9.6 12.2 0.00 0.00 0.00 82 1006.9
20260505222350 80 192 7.0 7.0 0.00 0.00 0.00 83 1007.1
20260505221847 80 182 11.3 13.0 0.00 0.00 0.00 82 1007.0
20260505221344 80 177 10.4 13.0 0.00 0.00 0.00 82 1007.1
20260505220841 80 184 12.2 13.9 0.00 0.00 0.00 83 1007.1
20260505220338 80 169 13.0 14.8 0.00 0.00 0.00 82 1007.1
20260505215836 80 186 12.2 13.0 0.00 0.00 0.00 82 1007.5
20260505215333 80 179 7.8 8.7 0.00 0.00 0.00 83 1007.4
20260505214831 80 179 11.3 13.0 0.00 0.00 0.00 82 1007.3
20260505214328 80 174 11.3 13.9 0.00 0.00 0.00 82 1007.3
20260505213825 80 132 11.3 13.9 0.00 0.00 0.00 81 1007.5
20260505213324 80 172 9.6 12.2 0.00 0.00 0.00 81 1007.4
20260505212819 80 161 9.6 11.3 0.00 0.00 0.00 81 1007.5
20260505212317 80 177 11.3 13.0 0.00 0.00 0.00 81 1007.4
20260505211812 80 159 9.6 12.2 0.00 0.00 0.00 81 1007.7
20260505211310 80 178 12.2 13.9 0.00 0.00 0.00 81 1007.6
20260505210806 81 170 12.2 14.8 0.00 0.00 0.00 80 1007.6
20260505210303 81 161 11.3 13.0 0.00 0.00 0.00 81 1007.7
20260505205800 81 160 8.7 8.7 0.00 0.00 0.00 81 1007.7
20260505205259 81 160 7.0 7.8 0.00 0.00 0.00 81 1007.7
20260505204755 81 134 9.6 13.0 0.00 0.00 0.00 80 1007.7
20260505204253 82 128 7.8 9.6 0.00 0.00 0.00 80 1008.1
20260505203750 82 212 9.6 11.3 0.00 0.00 0.00 78 1008.1
20260505203247 81 208 6.1 7.0 0.00 0.00 0.00 79 1008.1
20260505202742 81 177 11.3 13.0 0.00 0.00 0.00 81 1008.2
20260505202239 81 151 9.6 11.3 0.00 0.00 0.00 82 1008.3
20260505201736 81 206 10.4 12.2 0.00 0.00 0.00 78 1008.5
20260505201233 81 205 10.4 12.2 0.00 0.00 0.00 78 1008.3
20260505200732 81 179 10.4 13.0 0.00 0.00 0.00 77 1008.6
20260505200229 81 207 9.6 11.3 0.00 0.00 0.00 78 1008.4
20260505195724 81 181 7.0 7.8 0.00 0.00 0.00 79 1008.6
20260505195222 81 193 7.8 8.7 0.00 0.00 0.00 78 1008.6
20260505194719 81 180 6.1 7.8 0.00 0.00 0.00 78 1008.6
20260505194215 81 199 7.8 7.8 0.00 0.00 0.00 78 1008.6
20260505193711 80 196 10.4 13.0 0.00 0.00 0.00 78 1008.6
20260505193208 81 199 7.0 7.8 0.00 0.00 0.00 79 1008.8
20260505192707 81 197 10.4 12.2 0.00 0.00 0.00 78 1008.6
20260505192204 80 219 10.4 12.2 0.00 0.00 0.00 79 1008.7
20260505191702 80 202 11.3 12.2 0.00 0.00 0.00 79 1008.7
20260505191200 80 197 11.3 13.0 0.00 0.00 0.00 78 1008.7
20260505190656 80 207 10.4 12.2 0.00 0.00 0.00 78 1008.6
20260505190156 81 171 12.2 13.0 0.00 0.00 0.00 78 1008.8
20260505185653 81 198 9.6 11.3 0.00 0.00 0.00 77 1008.6
20260505185149 81 198 9.6 9.6 0.00 0.00 0.00 78 1008.9
20260505184645 81 193 8.7 9.6 0.00 0.00 0.00 78 1009.0
20260505184143 81 203 9.6 9.6 0.00 0.00 0.00 78 1009.1
20260505183640 81 194 10.4 13.0 0.00 0.00 0.00 78 1008.8
20260505183137 80 201 7.0 9.6 0.00 0.00 0.00 79 1009.0
20260505182633 81 186 9.6 11.3 0.00 0.00 0.00 78 1009.0
20260505182130 81 197 8.7 8.7 0.00 0.00 0.00 78 1008.9
20260505181627 80 206 10.4 12.2 0.00 0.00 0.00 78 1009.0
20260505181124 80 178 9.6 11.3 0.00 0.00 0.00 79 1009.1
20260505180620 81 205 8.7 9.6 0.00 0.00 0.00 79 1009.4
20260505180118 80 170 8.7 8.7 0.00 0.00 0.00 80 1009.3
20260505175614 80 183 7.8 8.7 0.00 0.00 0.00 80 1009.2
20260505175110 80 193 9.6 11.3 0.00 0.00 0.00 81 1009.3
20260505174607 80 194 8.7 11.3 0.00 0.00 0.00 81 1009.4
20260505174103 80 196 7.8 11.3 0.00 0.00 0.00 81 1009.6
20260505173600 80 203 13.0 14.8 0.00 0.00 0.00 81 1009.4
20260505173057 80 170 11.3 13.0 0.00 0.00 0.00 81 1009.4
20260505172554 80 186 8.7 8.7 0.00 0.00 0.00 81 1009.3
20260505172051 80 199 9.6 9.6 0.00 0.00 0.00 81 1009.5
20260505171545 80 206 10.4 12.2 0.00 0.00 0.00 82 1009.5
20260505171043 79 208 9.6 11.3 0.00 0.00 0.00 83 1009.7
20260505170539 80 194 8.7 8.7 0.00 0.00 0.00 83 1009.6
20260505170036 80 197 7.0 7.0 0.00 0.00 0.00 82 1009.4
20260505165531 80 169 7.0 7.8 0.00 0.00 0.00 82 1009.5
20260505165027 79 194 9.6 11.3 0.00 0.00 0.00 83 1009.5
20260505164523 79 206 9.6 9.6 0.00 0.00 0.00 83 1009.6
20260505164021 79 208 7.8 7.8 0.00 0.00 0.00 83 1009.6
20260505163520 79 192 7.8 8.7 0.00 0.00 0.00 83 1009.6
20260505163016 79 205 6.1 7.0 0.00 0.00 0.00 83 1009.6
20260505162509 79 191 7.0 7.8 0.00 0.00 0.00 84 1009.6
20260505162006 79 219 7.8 7.8 0.00 0.00 0.00 84 1009.8
20260505161503 78 218 9.6 11.3 0.00 0.00 0.00 83 1009.4
20260505161000 79 204 6.1 7.0 0.00 0.00 0.00 84 1009.5
20260505160458 79 226 8.7 11.3 0.00 0.00 0.00 83 1009.5
20260505152934 78 212 7.0 7.8 0.00 0.00 0.00 87 1009.4
20260505152432 77 201 7.8 7.8 0.00 0.00 0.00 87 1009.1
20260505151931 77 187 8.7 9.6 0.00 0.00 0.00 88 1009.4
20260505151422 77 224 6.1 6.1 0.00 0.00 0.00 88 1009.3
20260505150920 77 202 7.8 7.8 0.00 0.00 0.00 88 1009.1
20260505150416 77 206 6.1 7.0 0.00 0.00 0.00 89 1009.3
20260505140346 76 169 7.8 8.7 0.00 0.00 0.00 92 1009.3
20260505130310 74 196 6.1 6.1 0.00 0.00 0.00 95 1009.2
20260505124800 73 199 4.3 5.2 0.00 0.00 0.00 95 1009.0
20260505124257 73 192 4.3 5.2 0.00 0.00 0.00 95 1008.9
20260505123752 73 205 4.3 5.2 0.00 0.00 0.00 95 1008.9
20260505123249 73 201 5.2 5.2 0.00 0.00 0.00 95 1008.9
20260505122745 73 196 5.2 6.1 0.00 0.00 0.00 95 1008.8
20260505122243 73 203 3.5 4.3 0.00 0.00 0.00 95 1008.7
20260505121740 73 207 2.6 2.6 0.00 0.00 0.00 95 1008.6
20260505121237 73 211 3.5 4.3 0.00 0.00 0.00 95 1008.5
20260505120733 72 195 4.3 4.3 0.00 0.00 0.00 95 1008.6
20260505120229 72 203 5.2 5.2 0.00 0.00 0.00 95 1008.5
20260505115728 72 189 3.5 4.3 0.00 0.00 0.00 95 1008.6
20260505115226 72 203 3.5 4.3 0.00 0.00 0.00 95 1008.6
20260505114722 72 194 4.3 5.2 0.00 0.00 0.00 95 1008.7
20260505114218 72 193 3.5 4.3 0.00 0.00 0.00 95 1008.6
20260505113715 72 175 3.5 4.3 0.00 0.00 0.00 95 1008.6
20260505113212 72 174 4.3 5.2 0.00 0.00 0.00 95 1008.7
20260505112708 72 175 2.6 2.6 0.00 0.00 0.00 95 1008.6
20260505112206 72 178 3.5 4.3 0.00 0.00 0.00 95 1008.4
20260505111706 72 174 3.5 4.3 0.00 0.00 0.00 95 1008.5
20260505111202 72 188 2.6 2.6 0.00 0.00 0.00 95 1008.6
20260505110658 72 186 3.5 4.3 0.00 0.00 0.00 95 1008.6
20260505110155 72 174 2.6 2.6 0.00 0.00 0.00 95 1008.5